Tracking 22881 objects as of 19-Apr-2021
HD Live streaming from Space Station
objects crossing your sky now

STARLINK-1417

Track STARLINK-1417 now!
10-day predictions
STARLINK-1417 is classified as:


NORAD ID: 45693
Int'l Code: 2020-035AN
Perigee: 553.6 km
Apogee: 555.1 km
Inclination: 53.1 °
Period: 95.6 minutes
Semi major axis: 6925 km
RCS: Unknown
Launch date: June 4, 2020
Source: United States (US)
Launch site: AIR FORCE EASTERN TEST RANGE (AFETR)
aabbcc
Your satellite tracking list
Your tracking list is empty




NASA's NSSDC Master Catalog

Two Line Element Set (TLE):
1 45693U 20035AN  21108.82405034  .00001178  00000-0  97938-4 0  9992
2 45693  53.0580 153.6725 0001108 117.2275 242.8827 15.06396523 49695
Source of the keplerian elements: AFSPC